EW5655 Weather Reports


Display with metric or nautical units.
time (UTC)temp
F
wind
direction
speed
MPH
gust
MPH
rain 1hr
in
rain 24hr
in
rain mn
in
humidity
%
barometer
mb
20260504141017 64 251 3.0 7.0 0.00 0.00 0.00 38 1016.5
20260504140516 64 296 3.0 7.0 0.00 0.00 0.00 38 1016.4
20260504130531 65 250 2.0 6.0 0.00 0.00 0.00 34 1016.2
20260504110516 63 276 2.0 5.0 0.00 0.00 0.00 40 1014.3
20260504100508 60 207 0.0 2.0 0.00 0.00 0.00 55 1014.4
20260504082001 62 207 0.0 0.0 0.00 0.00 0.00 55 1014.4
20260504081601 61 207 0.0 2.0 0.00 0.00 0.00 56 1014.4
20260504081100 61 207 0.0 2.0 0.00 0.00 0.00 58 1014.6
20260504080559 62 207 0.0 1.0 0.00 0.00 0.00 56 1014.6
20260504050543 64 126 0.0 1.0 0.00 0.00 0.00 50 1015.4
20260504045542 64 126 0.0 1.0 0.00 0.00 0.00 51 1015.3
20260504045042 64 126 0.0 1.0 0.00 0.00 0.00 50 1015.4
20260504044542 64 126 0.0 1.0 0.00 0.00 0.00 49 1015.4
20260504044043 64 126 0.0 1.0 0.00 0.00 0.00 50 1015.3
20260504043542 65 126 0.0 1.0 0.00 0.00 0.00 51 1015.2
20260504043049 64 126 0.0 4.0 0.00 0.00 0.00 51 1015.2
20260504042540 64 126 0.0 4.0 0.00 0.00 0.00 53 1015.3
20260504042044 64 126 1.0 2.0 0.00 0.00 0.00 53 1015.2
20260504041541 64 126 0.0 2.0 0.00 0.00 0.00 52 1015.2
20260504041041 64 126 0.0 4.0 0.00 0.00 0.00 52 1015.2
20260504040540 64 126 1.0 3.0 0.00 0.00 0.00 54 1015.1
20260504040041 64 126 0.0 2.0 0.00 0.00 0.00 53 1015.1
20260504035540 64 126 0.0 2.0 0.00 0.00 0.00 53 1015.2
20260504035044 64 126 0.0 2.0 0.00 0.00 0.00 53 1015.1
20260504034547 65 126 1.0 3.0 0.00 0.00 0.00 52 1015.1
20260504034039 65 126 1.0 4.0 0.00 0.00 0.00 51 1015.2
20260504033539 65 126 0.0 1.0 0.00 0.00 0.00 52 1015.2
20260504033041 66 126 0.0 2.0 0.00 0.00 0.00 51 1015.2
20260504032539 66 126 0.0 2.0 0.00 0.00 0.00 49 1015.1
20260504032043 66 126 0.0 1.0 0.00 0.00 0.00 49 1015.1
20260504031539 66 126 0.0 2.0 0.00 0.00 0.00 49 1015.1
20260504031039 66 126 0.0 4.0 0.00 0.00 0.00 49 1015.0
20260504030538 67 126 0.0 4.0 0.00 0.00 0.00 48 1015.0
20260504030045 67 126 1.0 2.0 0.00 0.00 0.00 48 1015.1
20260504025538 67 126 0.0 2.0 0.00 0.00 0.00 47 1015.0
20260504025038 67 126 0.0 4.0 0.00 0.00 0.00 47 1015.1
20260504024537 68 126 1.0 4.0 0.00 0.00 0.00 47 1015.1
20260504024038 68 135 1.0 4.0 0.00 0.00 0.00 46 1015.0
20260504023537 69 135 1.0 4.0 0.00 0.00 0.00 44 1015.1
20260504023038 69 135 0.0 5.0 0.00 0.00 0.00 43 1015.0
20260504022538 70 135 0.0 5.0 0.00 0.00 0.00 43 1015.0
20260504022038 71 137 1.0 5.0 0.00 0.00 0.00 40 1014.9
20260504021537 72 147 1.0 5.0 0.00 0.00 0.00 39 1014.9
20260504021037 72 141 3.0 5.0 0.00 0.00 0.00 39 1014.8
20260504020537 72 155 1.0 5.0 0.00 0.00 0.00 38 1014.9
20260504020043 72 153 3.0 5.0 0.00 0.00 0.00 38 1014.9
20260504015536 73 159 2.0 5.0 0.00 0.00 0.00 38 1014.8
20260504015037 73 145 2.0 6.0 0.00 0.00 0.00 37 1014.8
20260504014543 73 159 1.0 6.0 0.00 0.00 0.00 38 1014.7
20260504014036 73 167 3.0 6.0 0.00 0.00 0.00 38 1014.8
20260504013536 73 161 1.0 4.0 0.00 0.00 0.00 37 1014.7
20260504013037 73 161 0.0 5.0 0.00 0.00 0.00 37 1014.7
20260504012536 74 155 2.0 5.0 0.00 0.00 0.00 36 1014.8
20260504012041 74 160 1.0 6.0 0.00 0.00 0.00 36 1014.7
20260504011536 74 168 4.0 6.0 0.00 0.00 0.00 36 1014.7
20260504011034 74 159 2.0 6.0 0.00 0.00 0.00 36 1014.7
20260504010534 74 159 4.0 6.0 0.00 0.00 0.00 36 1014.8
20260504010033 74 147 0.0 4.0 0.00 0.00 0.00 36 1014.8
20260504005532 74 144 0.0 6.0 0.00 0.00 0.00 36 1015.0
20260504005034 74 137 1.0 6.0 0.00 0.00 0.00 35 1014.9
20260504004534 74 152 1.0 5.0 0.00 0.00 0.00 36 1014.9
20260504004031 74 158 2.0 5.0 0.00 0.00 0.00 35 1015.0
20260504003531 74 165 2.0 8.0 0.00 0.00 0.00 34 1015.1
20260504003030 75 133 4.0 8.0 0.00 0.00 0.00 35 1015.1
20260504002530 75 165 3.0 8.0 0.00 0.00 0.00 35 1015.1
20260504002030 75 181 4.0 8.0 0.00 0.00 0.00 35 1015.2
20260504001532 75 155 3.0 10.0 0.00 0.00 0.00 35 1015.1
20260504001033 75 177 5.0 11.0 0.00 0.00 0.00 35 1015.2
20260504000529 75 142 6.0 11.0 0.00 0.00 0.00 34 1015.1
20260504000028 75 157 4.0 8.0 0.00 0.00 0.00 35 1015.2
20260503235528 75 180 4.0 8.0 0.00 0.00 0.00 34 1015.2
20260503235028 75 144 2.0 9.0 0.00 0.00 0.00 35 1015.3
20260503234529 75 161 5.0 13.0 0.00 0.00 0.00 34 1015.4
20260503234028 75 128 5.0 13.0 0.00 0.00 0.00 34 1015.2
20260503233528 75 181 6.0 13.0 0.00 0.00 0.00 34 1015.2
20260503233028 75 167 4.0 11.0 0.00 0.00 0.00 35 1015.2
20260503232527 75 166 5.0 11.0 0.00 0.00 0.00 35 1015.2
20260503232026 75 146 4.0 13.0 0.00 0.00 0.00 34 1015.4
20260503231525 75 127 5.0 13.0 0.00 0.00 0.00 35 1015.5
20260503231026 75 134 6.0 10.0 0.00 0.00 0.00 34 1015.6
20260503230524 75 194 5.0 9.0 0.00 0.00 0.00 35 1015.6
20260503230024 75 145 6.0 11.0 0.00 0.00 0.00 35 1015.6
20260503225526 74 117 4.0 11.0 0.00 0.00 0.00 35 1015.7
20260503225025 74 126 5.0 8.0 0.00 0.00 0.00 35 1015.7
20260503224522 74 161 4.0 8.0 0.00 0.00 0.00 35 1015.9
20260503224020 74 156 5.0 9.0 0.00 0.00 0.00 35 1016.0
20260503223520 74 181 2.0 8.0 0.00 0.00 0.00 35 1016.0
20260503223020 74 151 4.0 10.0 0.00 0.00 0.00 35 1016.1
20260503222518 74 153 4.0 10.0 0.00 0.00 0.00 35 1016.2
20260503222017 74 125 5.0 8.0 0.00 0.00 0.00 35 1016.4
20260503221516 74 128 4.0 8.0 0.00 0.00 0.00 36 1016.5
20260503221015 73 153 1.0 7.0 0.00 0.00 0.00 36 1016.6
20260503220518 74 215 4.0 7.0 0.00 0.00 0.00 36 1016.6
20260503220015 73 174 2.0 7.0 0.00 0.00 0.00 36 1016.6
20260503215514 73 176 4.0 10.0 0.00 0.00 0.00 36 1016.6
20260503215012 73 143 5.0 10.0 0.00 0.00 0.00 36 1016.7
20260503214532 73 125 2.0 9.0 0.00 0.00 0.00 37 1016.9
20260503214010 73 136 5.0 9.0 0.00 0.00 0.00 36 1017.1
20260503213610 73 204 2.0 8.0 0.00 0.00 0.00 36 1017.1
20260503213009 73 229 4.0 10.0 0.00 0.00 0.00 36 1017.2
20260503212510 73 165 5.0 10.0 0.00 0.00 0.00 36 1017.4
20260503212007 73 156 4.0 10.0 0.00 0.00 0.00 36 1017.5
20260503211505 73 115 4.0 10.0 0.00 0.00 0.00 36 1017.6
20260503211005 73 113 5.0 11.0 0.00 0.00 0.00 36 1017.8
20260503210506 73 128 5.0 11.0 0.00 0.00 0.00 36 1017.8
20260503210005 73 166 4.0 8.0 0.00 0.00 0.00 36 1017.8
20260503205504 73 166 3.0 10.0 0.00 0.00 0.00 37 1017.8
20260503205002 73 200 5.0 12.0 0.00 0.00 0.00 37 1018.1
20260503204601 73 99 7.0 12.0 0.00 0.00 0.00 37 1018.2
20260503204100 73 178 7.0 12.0 0.00 0.00 0.00 37 1018.3
20260503203559 73 199 5.0 10.0 0.00 0.00 0.00 37 1018.4
20260503203057 72 142 5.0 9.0 0.00 0.00 0.00 36 1018.5
20260503202557 71 176 5.0 9.0 0.00 0.00 0.00 38 1018.7
20260503202059 72 302 3.0 12.0 0.00 0.00 0.00 36 1018.8
20260503201555 72 125 6.0 10.0 0.00 0.00 0.00 37 1018.8
20260503201053 72 186 5.0 9.0 0.00 0.00 0.00 38 1018.9
20260503200553 71 244 5.0 10.0 0.00 0.00 0.00 38 1018.9
20260503200100 71 161 5.0 11.0 0.00 0.00 0.00 38 1019.0
20260503195551 71 178 6.0 11.0 0.00 0.00 0.00 38 1019.1
20260503195051 71 170 4.0 10.0 0.00 0.00 0.00 38 1019.1
20260503194601 71 148 6.0 12.0 0.00 0.00 0.00 37 1019.1
20260503194050 71 128 3.0 13.0 0.00 0.00 0.00 38 1019.2
20260503193549 71 182 6.0 13.0 0.00 0.00 0.00 38 1019.4
20260503193058 71 190 3.0 15.0 0.00 0.00 0.00 36 1019.4
20260503192548 71 159 4.0 15.0 0.00 0.00 0.00 36 1019.4
20260503192047 71 202 5.0 10.0 0.00 0.00 0.00 37 1019.3
20260503191549 71 220 4.0 10.0 0.00 0.00 0.00 38 1019.4
20260503191045 71 169 4.0 8.0 0.00 0.00 0.00 38 1019.5
20260503190545 70 163 4.0 9.0 0.00 0.00 0.00 38 1019.6
20260503190048 70 184 3.0 8.0 0.00 0.00 0.00 39 1019.6
20260503185543 70 133 6.0 9.0 0.00 0.00 0.00 38 1019.6
20260503185044 70 228 5.0 12.0 0.00 0.00 0.00 38 1019.6
20260503184557 70 205 5.0 12.0 0.00 0.00 0.00 37 1019.6
20260503184043 70 152 6.0 9.0 0.00 0.00 0.00 38 1019.6
20260503183541 70 138 5.0 9.0 0.00 0.00 0.00 36 1019.7
20260503183043 70 161 4.0 10.0 0.00 0.00 0.00 39 1019.6
20260503182541 70 131 5.0 11.0 0.00 0.00 0.00 38 1019.8
20260503182040 70 120 6.0 11.0 0.00 0.00 0.00 40 1019.9
20260503181557 69 222 6.0 10.0 0.00 0.00 0.00 39 1019.9
20260503181039 70 190 6.0 15.0 0.00 0.00 0.00 39 1020.1
20260503180539 70 138 6.0 15.0 0.00 0.00 0.00 39 1020.4
20260503180049 70 152 6.0 14.0 0.00 0.00 0.00 39 1020.4
20260503175536 70 165 6.0 13.0 0.00 0.00 0.00 39 1020.4
20260503175035 69 178 5.0 11.0 0.00 0.00 0.00 40 1020.2
20260503174545 69 170 6.0 11.0 0.00 0.00 0.00 40 1020.2
20260503174035 69 145 4.0 11.0 0.00 0.00 0.00 41 1020.4
20260503173535 68 167 3.0 8.0 0.00 0.00 0.00 40 1020.4
20260503173046 69 157 3.0 8.0 0.00 0.00 0.00 41 1020.5
20260503172535 69 187 3.0 8.0 0.00 0.00 0.00 41 1020.6
20260503172033 69 150 5.0 9.0 0.00 0.00 0.00 43 1020.7
20260503171533 67 184 1.0 5.0 0.00 0.00 0.00 48 1020.7
20260503171033 66 136 0.0 8.0 0.00 0.00 0.00 49 1020.6
20260503170532 67 248 4.0 8.0 0.00 0.00 0.00 48 1020.8
20260503151010 59 27 1.0 4.0 0.00 0.00 0.00 64 1021.1
20260503150512 58 27 1.0 4.0 0.00 0.00 0.00 64 1021.1